Location: Freistadt
(48.5112°N, 14.5013°E)
Time: 16:36:40
(UTC+02:00)

CUBEBUG 2 - Pass Details

Date: 02 April 2023
Orbit: 577 x 685 km, 97.8° (Epoch: 02 June)

Event Time Altitude Azimuth Distance (km) Brightness Sun altitude
Rises 02:25:52 0° 27° (NNE) 3,065 ? -33.9°
Reaches altitude 10° 02:28:51 10° 47° (NE) 2,135 ? -33.7°
Enters shadow 02:31:22 17° 79° (E) 1,680 ? -33.5°
